Location: Cambroso
(45.2833°N, 12.0850°E)
Time: 16:11:43
(UTC+00:00)

CZ-2C R/B - Pass Details

Date: 21 January 2021
Orbit: 785 x 870 km, 98.2° (Epoch: 26 February)

Event Time Altitude Azimuth Distance (km) Brightness Sun altitude
Exits shadow 19:08:09 56° 300° (WNW) 1,018 3.2 -32.2°
Maximum altitude 19:08:24 57° 289° (WNW) 1,013 3.2 -32.2°
Drops below altitude 10° 19:13:51 10° 212° (SSW) 2,506 5.4 -33.2°
Sets 19:16:16 0° 208° (SSW) 3,443 6.1 -33.6°
